User: anonymous   Login
Location: Newark
(37.9800°N, 91.3000°W)
Time: 21:14:07
(UTC+00:00)
Language:

Envisat - Orbit

View from above orbital plane
View from above orbital plane
View from above satellite
View from above satellite

Ground track
Ground track

The orbit data is extracted from the following two-line orbital elements,

1 27386U 02009A   19318.98984326  .00000006  00000-0  15359-4 0  9991
2 27386  98.1429 332.3311 0001291  95.2605 297.8764 14.37962796927653
Epoch (UTC): 14 November 2019 23:45:22
Eccentricity: 0.0001291
inclination: 98.1429°
perigee height: 764 km
apogee height: 766 km
right ascension of ascending node: 332.3311°
argument of perigee: 95.2605°
revolutions per day: 14.37962796
mean anomaly at epoch: 297.8764°
orbit number at epoch: 92765

The dashed part of the orbit path shows where the satellite is in the earth's shadow,  

DLR